AIZ2221 LLBG-LLBG

Flight info

Callsign AIZ2221
Flight time 0h 36m
Altitude 29000
Route SUVAS L53 STEPA N71 BIRES Z89 PIKOG L609 ZUKKO
Aircraft E195/M-SDE3GILORVW/S

Departure

Time 2026-05-04 06:44
Airport Ben Gurion International Airport (LLBG)

Arrival

Time 2026-05-04 07:20
Airport Ben Gurion International Airport (LLBG)
Time Latitude Longitude Altitude Speed Heading
2026-05-04 06:27 32.00218 34.89730 137 ft 0 kts 142°
2026-05-04 06:36 32.00229 34.89720 137 ft 2 kts 141°
2026-05-04 06:37 32.00240 34.89709 137 ft 2 kts 141°
2026-05-04 06:37 32.00252 34.89700 137 ft 2 kts 155°
2026-05-04 06:37 32.00267 34.89694 137 ft 2 kts 171°
2026-05-04 06:37 32.00282 34.89693 137 ft 2 kts 187°
2026-05-04 06:38 32.00294 34.89697 137 ft 1 kts 198°
2026-05-04 06:40 32.00249 34.89635 137 ft 8 kts 283°
2026-05-04 06:40 32.00230 34.89575 137 ft 9 kts 200°
2026-05-04 06:40 32.00145 34.89547 137 ft 15 kts 198°
2026-05-04 06:40 32.00035 34.89503 137 ft 14 kts 199°
2026-05-04 06:41 31.99980 34.89478 137 ft 4 kts 215°
2026-05-04 06:41 31.99980 34.89453 137 ft 0 kts 302°
2026-05-04 06:41 31.99983 34.89448 137 ft 2 kts 302°
2026-05-04 06:42 32.00073 34.89271 137 ft 58 kts 302°
2026-05-04 06:42 32.00402 34.88639 137 ft 119 kts 301°
2026-05-04 06:42 32.00932 34.87638 153 ft 164 kts 302°
2026-05-04 06:44 32.00590 34.77318 4992 ft 207 kts 260°
2026-05-04 06:44 32.00386 34.75678 5917 ft 206 kts 260°
2026-05-04 06:44 32.00181 34.74047 6789 ft 206 kts 260°
2026-05-04 06:45 32.00300 34.72358 7484 ft 217 kts 282°
2026-05-04 06:45 32.00606 34.70554 7836 ft 237 kts 264°
2026-05-04 06:45 32.00680 34.68593 8010 ft 250 kts 286°
2026-05-04 06:45 32.01715 34.66898 8038 ft 269 kts 319°
2026-05-04 06:46 32.03462 34.66119 7873 ft 274 kts 351°
2026-05-04 06:46 32.05353 34.66566 7373 ft 289 kts 25°
2026-05-04 06:46 32.06877 34.68160 6806 ft 298 kts 49°
2026-05-04 06:46 32.08378 34.69745 6324 ft 292 kts 21°
2026-05-04 06:48 32.20888 34.77064 4864 ft 284 kts 25°
2026-05-04 06:48 32.22626 34.78185 4932 ft 286 kts 26°
2026-05-04 06:49 32.24136 34.79729 4928 ft 292 kts 57°
2026-05-04 06:50 32.21625 34.94101 2625 ft 238 kts 119°
2026-05-04 06:51 32.20937 34.95813 2593 ft 230 kts 120°
2026-05-04 06:51 32.20342 34.97583 2611 ft 235 kts 112°
2026-05-04 06:51 32.19434 34.99102 2630 ft 226 kts 149°
2026-05-04 06:51 32.18043 34.99832 2617 ft 213 kts 184°
2026-05-04 06:52 32.16619 34.99534 2691 ft 206 kts 202°
2026-05-04 06:52 32.15360 34.98783 2779 ft 204 kts 213°
2026-05-04 06:52 32.14125 34.97958 2824 ft 204 kts 212°
2026-05-04 06:52 32.12861 34.97133 2560 ft 207 kts 211°
2026-05-04 06:53 32.11589 34.96310 2301 ft 206 kts 212°
2026-05-04 06:53 32.10339 34.95504 2032 ft 204 kts 212°
2026-05-04 06:53 32.09098 34.94705 1757 ft 202 kts 211°
2026-05-04 06:53 32.07942 34.93960 1520 ft 187 kts 212°
2026-05-04 06:54 32.06850 34.93259 1277 ft 169 kts 211°
2026-05-04 06:54 32.05875 34.92630 1074 ft 150 kts 211°
2026-05-04 06:54 32.04991 34.92061 866 ft 144 kts 211°
2026-05-04 06:54 32.04104 34.91491 673 ft 147 kts 211°
2026-05-04 06:55 32.03193 34.90926 533 ft 148 kts 208°
2026-05-04 06:55 32.02277 34.90350 354 ft 155 kts 210°
2026-05-04 06:55 32.01346 34.89750 903 ft 148 kts 212°
2026-05-04 06:55 32.00534 34.89154 1626 ft 135 kts 211°
2026-05-04 06:56 31.99694 34.88733 2216 ft 130 kts 209°
2026-05-04 06:57 32.01215 34.93084 4433 ft 190 kts 39°
2026-05-04 06:58 32.02125 34.94238 4323 ft 191 kts 52°
2026-05-04 06:58 32.02914 34.95504 4324 ft 190 kts 51°
2026-05-04 06:58 32.03726 34.96730 4313 ft 191 kts 49°
2026-05-04 06:58 32.04614 34.97910 4310 ft 191 kts 37°
2026-05-04 06:59 32.05626 34.98923 4273 ft 190 kts 36°
2026-05-04 06:59 32.06628 34.99919 4109 ft 192 kts 36°
2026-05-04 06:59 32.07673 35.00960 3720 ft 196 kts 37°
2026-05-04 06:59 32.08714 35.01996 3342 ft 196 kts 36°
2026-05-04 07:01 32.14625 34.98917 2595 ft 149 kts 272°
2026-05-04 07:01 32.14353 34.97800 2668 ft 145 kts 229°
2026-05-04 07:02 32.13446 34.97242 2675 ft 154 kts 204°
2026-05-04 07:02 32.12455 34.96767 2482 ft 153 kts 208°
2026-05-04 07:02 32.11510 34.96225 2283 ft 150 kts 210°
2026-05-04 07:02 32.10586 34.95654 2082 ft 147 kts 212°
2026-05-04 07:03 32.09690 34.95084 1889 ft 147 kts 212°
2026-05-04 07:03 32.08787 34.94505 1689 ft 149 kts 212°
2026-05-04 07:03 32.07875 34.93919 1491 ft 148 kts 211°
2026-05-04 07:03 32.06980 34.93342 1294 ft 149 kts 211°
2026-05-04 07:04 32.06063 34.92752 1098 ft 154 kts 211°
2026-05-04 07:04 32.05062 34.92106 1240 ft 178 kts 211°
2026-05-04 07:04 32.03886 34.91357 1669 ft 197 kts 208°
2026-05-04 07:04 32.02525 34.91270 2400 ft 213 kts 162°
2026-05-04 07:05 32.01416 34.92410 3281 ft 220 kts 128°
2026-05-04 07:05 32.00812 34.94023 3942 ft 222 kts 97°
2026-05-04 07:05 32.01149 34.95785 4040 ft 226 kts 57°
2026-05-04 07:05 32.02177 34.97150 4040 ft 221 kts 35°
2026-05-04 07:06 32.04576 34.99315 4049 ft 217 kts 34°
2026-05-04 07:06 32.05785 35.00401 3919 ft 217 kts 34°
2026-05-04 07:06 32.06990 35.01487 3703 ft 216 kts 34°
2026-05-04 07:07 32.08175 35.02557 3358 ft 218 kts 34°
2026-05-04 07:08 32.14237 34.98712 2622 ft 136 kts 278°
2026-05-04 07:09 32.14360 34.97602 2609 ft 135 kts 255°
2026-05-04 07:09 32.13820 34.96774 2618 ft 137 kts 209°
2026-05-04 07:09 32.12827 34.96637 2513 ft 150 kts 178°
2026-05-04 07:09 32.11852 34.96558 2333 ft 137 kts 210°
2026-05-04 07:10 32.11020 34.95983 2184 ft 137 kts 213°
2026-05-04 07:10 32.10194 34.95427 2005 ft 138 kts 213°
2026-05-04 07:12 32.04325 34.91716 2174 ft 148 kts 191°
2026-05-04 07:12 32.03312 34.92116 2661 ft 167 kts 144°
2026-05-04 07:12 32.02790 34.93354 3179 ft 180 kts 97°
2026-05-04 07:12 32.03119 34.94754 3711 ft 181 kts 51°
2026-05-04 07:13 32.03962 34.95891 4032 ft 198 kts 44°
2026-05-04 07:13 32.04950 34.97153 4053 ft 211 kts 44°
2026-05-04 07:13 32.05954 34.98429 4026 ft 212 kts 44°
2026-05-04 07:14 32.09818 35.03302 3138 ft 196 kts 30°
2026-05-04 07:14 32.11062 35.03681 2720 ft 179 kts 343°
2026-05-04 07:15 32.12041 35.02970 2662 ft 161 kts 298°
2026-05-04 07:15 32.12770 35.01951 2642 ft 166 kts 307°
2026-05-04 07:15 32.13584 35.00982 2619 ft 167 kts 302°
2026-05-04 07:15 32.14303 34.99918 2615 ft 164 kts 300°
2026-05-04 07:16 32.14751 34.98709 2611 ft 160 kts 273°
2026-05-04 07:16 32.14442 34.97539 2615 ft 155 kts 226°
2026-05-04 07:16 32.13444 34.97035 2625 ft 161 kts 197°
2026-05-04 07:16 32.12375 34.96644 2440 ft 160 kts 205°
2026-05-04 07:17 32.11353 34.96102 2239 ft 159 kts 210°
2026-05-04 07:17 32.10377 34.95514 2037 ft 157 kts 212°
2026-05-04 07:17 32.09405 34.94900 1826 ft 155 kts 211°
2026-05-04 07:17 32.08493 34.94316 1614 ft 147 kts 212°
2026-05-04 07:18 32.07598 34.93739 1428 ft 147 kts 212°
2026-05-04 07:18 32.06692 34.93157 1232 ft 148 kts 212°
2026-05-04 07:18 32.05836 34.92606 1042 ft 132 kts 213°
2026-05-04 07:18 32.05056 34.92104 860 ft 126 kts 213°
2026-05-04 07:19 32.04272 34.91598 707 ft 126 kts 213°
2026-05-04 07:19 32.03504 34.91105 543 ft 127 kts 213°
2026-05-04 07:19 32.02725 34.90601 373 ft 126 kts 208°
2026-05-04 07:19 32.01937 34.90114 218 ft 127 kts 213°
2026-05-04 07:20 32.01194 34.89624 137 ft 110 kts 209°
2026-05-04 07:20 32.00672 34.89286 137 ft 58 kts 210°
2026-05-04 07:20 32.00444 34.89151 137 ft 10 kts 178°
2026-05-04 07:20 32.00388 34.89211 137 ft 13 kts 122°
2026-05-04 07:22 32.00660 34.89655 137 ft 0 kts 27°